Location: Wanzleben
(52.0609°N, 11.4408°E)
Time: 17:40:42
(UTC+00:00)

Envisat - Pass Details

Date: 03 December 2020
Orbit: 764 x 766 km, 98.1° (Epoch: 20 January)

Event Time Altitude Azimuth Distance (km) Brightness Sun altitude
Rises 05:41:22 0° 12° (NNE) 3,248 6.2 -11.9°
Reaches altitude 10° 05:43:42 10° 10° (N) 2,317 5.4 -11.5°
Maximum altitude 05:48:46 68° 289° (WNW) 828 3.0 -10.8°
Drops below altitude 10° 05:53:47 10° 207° (SSW) 2,300 5.4 -10.1°
Sets 05:56:06 0° 205° (SSW) 3,221 6.2 -9.8°
